Location: Newark
(58.8333°N, 23.5833°E)
Time: 01:07:57
(UTC+00:00)

Explorer 7 - Pass Details

Date: 20 November 2019
Orbit: 485 x 680 km, 50.3° (Epoch: 10 December)

Event Time Altitude Azimuth Distance (km) Brightness Sun altitude
Rises 21:39:03 0° 196° (SSW) 2,945 - -50.5°
Reaches altitude 10° 21:43:09 10° 162° (SSE) 1,992 - -50.6°
Maximum altitude 21:44:26 11° 145° (SE) 1,906 - -50.6°
Drops below altitude 10° 21:45:41 10° 129° (SE) 1,960 - -50.7°
Sets 21:49:36 0° 94° (E) 2,809 - -50.7°
